This is the latest recevied weather packets stored in our database for station/object K7NDG. If no packets are shown the sender has not sent any weather packets the latest 10 day(s).
| Time | Temp. | Humidity | Pressure | Rain* | Wind** | Luminosity | Snow |
|---|---|---|---|---|---|---|---|
| 1777739139 | 12.22° C | 84% | 1017.8 hPa | 0 mm | - | 153 W/m² | - |
| 1777738836 | 11.67° C | 85% | 1017.6 hPa | 0 mm | - | 142 W/m² | - |
| 1777738532 | 11.67° C | 85% | 1017.9 hPa | 0 mm | - | 131 W/m² | - |
| 1777738230 | 11.67° C | 86% | 1017.9 hPa | 0 mm | - | 116 W/m² | - |
| 1777737928 | 11.67° C | 86% | 1017.8 hPa | 0 mm | - | 105 W/m² | - |
| 1777737626 | 11.67° C | 86% | 1017.7 hPa | 0 mm | - | 104 W/m² | - |
| 1777737325 | 11.67° C | 87% | 1017.9 hPa | 0 mm | - | 95 W/m² | - |
| 1777737021 | 11.11° C | 88% | 1017.9 hPa | 0 mm | - | 93 W/m² | - |
| 1777736717 | 11.11° C | 88% | 1017.8 hPa | 0 mm | - | 82 W/m² | - |
| 1777736078 | 11.11° C | 88% | 1017.6 hPa | 0 mm | - | 75 W/m² | - |
| 1777735775 | 11.11° C | 88% | 1017.6 hPa | 0 mm | - | 69 W/m² | - |
| 1777735472 | 11.11° C | 88% | 1017.7 hPa | 0 mm | - | 66 W/m² | - |
| 1777735170 | 10.56° C | 88% | 1017.6 hPa | 0 mm | - | 64 W/m² | - |
| 1777734866 | 10.56° C | 88% | 1017.6 hPa | 0 mm | - | 66 W/m² | - |
| 1777734564 | 11.11° C | 88% | 1017.7 hPa | 0 mm | - | 60 W/m² | - |
| 1777734260 | 10.56° C | 88% | 1017.6 hPa | 0 mm | - | 60 W/m² | - |
| 1777733957 | 10.56° C | 88% | 1017.4 hPa | 0 mm | - | 57 W/m² | - |
| 1777733654 | 10.56° C | 89% | 1017.5 hPa | 0 mm | - | 51 W/m² | - |
| 1777733350 | 10.56° C | 89% | 1017.6 hPa | 0 mm | - | 51 W/m² | - |
| 1777733047 | 10.56° C | 89% | 1017.6 hPa | 0 mm | - | 45 W/m² | - |
| 1777732743 | 10.56° C | 89% | 1017.7 hPa | 0 mm | - | 39 W/m² | - |
| 1777732440 | 10.56° C | 89% | 1017.6 hPa | 0 mm | - | 34 W/m² | - |
| 1777732138 | 10.56° C | 89% | 1017.6 hPa | 0 mm | - | 32 W/m² | - |
| 1777731834 | 10° C | 89% | 1017.8 hPa | 0 mm | - | 27 W/m² | - |
| 1777731531 | 10.56° C | 88% | 1017.6 hPa | 0 mm | - | 23 W/m² | - |
* Rain latest hour (hover to see other rain measurements)
** Current wind speed in m/s (hover to see current wind gust speed)